星链-30362 (STARLINK-30362 )

导读

STARLINK-30362是美国SpaceX公司星链(Starlink)卫星互联网项目的低轨通信卫星,于2023年9月1日发射入轨。作为星链星座的组成部分,它运行在近地轨道,依托星链系统的相控阵天线与激光星间链路技术,为全球偏远地区、特殊场景提供高速低延迟宽带互联网接入服务,是星链实现全球覆盖计划中的重要节点,也加剧了近地轨道空间资源竞争与天文观测影响的争议。

Basic Information
目录编号:
57745
目录名称:
STARLINK-30362
国际标识:
2023-131P
轨道中心:
EARTH
卫星名称:
星链-30362
卫星全名:
星链-30362 (STARLINK-30362 )
卫星状态:
在轨 (已飞行1100 天)
发射日期:
2023-09-01 UTC
国别 :
美国 (US)
星等 :
--
Orbit Information
数据来源 国际轨道数据 AOE轨道数据
星历时间 2026-09-05T09:22:27+0800
11小时前
查看轨道信息
2026-08-31T08:00:00+0800
5天前
查看轨道信息
半长轴 6861.2km 6861.202km
偏心率 0.0001322 0.0001401
轨道倾角 43.001° 43.002°
近地点辐角 270.240° 257.317°
升交点赤经 239.883° 268.446°
平近点角 89.830° 338.897°
近地点 482.155km 482.103km
远地点 483.971km 484.027km
周期 94.267分钟 94.267分钟
每日圈数 15.275755 15.27575
Detailed Information
固有亮度:
5
最大亮度:
0.3
卫星平台:
Starlink v2.0 mini
覆盖范围:
全球
运营商:
太空探索技术公司
运营商所在国:
美国
制造商(研发单位):
太空探索技术公司
制造商所在国:
美国
使用方式:
暂无
Satellite Introduction
星链(Starlink)计划是由太空探索技术公司(SpaceX)提出的一个巨型低轨卫星互联网星座项目,计划在2019年至2024年间在太空搭建由约1.2万颗卫星组成的“星链”网络,其中1584颗将部署在地球上空550千米处的近地轨道,并从2020年开始工作。该卫星仍在工作。
2D Orbit Map
3D Orbit Map
Orbit Altitude Analysis Chart
Orbit Inclination Analysis Chart
Orbit Comprehensive Analysis Chart
View Comprehensive Chart
Conjunction Data List
Event ID Objects TCA Miss Dist (km) Collision Risk Probability Collision Risk Index (CRI) Action
CDM_260907-210405-774506-414021
2026-09-07T
21:04:36+0000
0.208 km
中距离
6.177393E-4 高风险 0.91
CDM_260907-193005-774506-414021
2026-09-07T
19:30:26+0000
1.700 km
极远距离
2.937244E-6 低风险 0.44
CDM_260907-223805-774506-414021
2026-09-07T
22:38:45+0000
1.924 km
极远距离
2.089874E-6 低风险 0.41
CDM_260908-014605-774506-430721
2026-09-08T
01:46:04+0000
2.743 km
极远距离
1.309153E-6 低风险 0.37